www.pogodaiklimat.ru

Погода и климат >> Архив погоды >> Таиланд >> Nan Agromet


ПОГОДА в Nan Agromet

  • Прогноз погоды в Nan Agromet
  • Монитор погоды в Nan Agromet
  • Климат города

АРХИВ ПОГОДЫ в Nan Agromet

Время (UTC), дата Ветер
(напр.,м/с)
 
Видим.   Явления Облачность Т
(С)
Тd
(С)
f
(%)
Тe
(С)
Тes
(С)
Комфортность P
(гПа)
Po
(гПа)
Тmin
(С)
Tmax
(С)
R
(мм)
R24
(мм)
S
(см)
00 19.02 штиль 0 6000 м дымка 3/0
[Ci fib]
+17.1 +16.3 95 +17 +17 1013.4 982.4 +16.8
03 19.02 штиль 0 10 км 1/1 600 м
[Cu hum]
+23.8 +19.1 75 +29 +42 душно 1013.9 983.6
06 19.02 штиль 0 12 км ясно +32.1 +18.0 43 +36 +58 опасность
солнечного
удара
1009.9 980.5
09 19.02 штиль 0 12 км 1/1 600 м
[Cu hum]
+34.1 +16.7 35 +37 +43 очень
душно
1006.9 977.7
12 19.02 штиль 0 12 км 1/1 600 м
[Cu hum]
+29.4 +21.8 64 +38 +38 очень
душно
1007.8 978.2 +34.2
15 19.02 штиль 0 10 км ясно +24.4 +21.1 82 +31 +31 очень
душно
1011.0 980.8
18 19.02 штиль 0 10 км ясно +21.4 +19.7 90 +26 +26 душно 1011.2 980.7
21 19.02 штиль 0 7000 м дымка ясно +18.7 +17.5 93 +20 +20 1010.2 979.5
00 20.02 штиль 0 6000 м дымка ясно +19.1 +18.3 95 +21 +21 комфорт 1012.8 982.0 +18.7
03 20.02 штиль 0 12 км ясно +24.5 +18.0 67 +29 +44 душно 1013.6 983.3
06 20.02 штиль 0 12 км ясно +31.4 +18.0 45 +36 +58 опасность
солнечного
удара
1009.0 979.6
09 20.02 штиль 0 12 км 5/3 600 м
[Cu med, cong Ac und Cs]
+33.7 +19.5 43 +39 +43 очень
душно
1005.9 976.8
12 20.02 штиль 0 10 км 5/3 600 м
[Cu med, cong Ac und Cs]
+29.0 +20.7 61 +36 +36 очень
душно
1006.7 977.1 +34.0
15 20.02 штиль 0 7000 м дымка 3/0
[Cs]
+25.0 +21.7 82 +32 +32 очень
душно
1008.6 978.5
18 20.02 штиль 0 5000 м дымка ясно +22.8 +21.6 93 +30 +30 очень
душно
1008.8 978.5
21 20.02 штиль 0 5000 м дымка ясно +20.7 +19.6 93 +25 +25 комфорт 1008.1 977.6
00 21.02 штиль 0 6000 м дымка 8/3 600 м
[Sc Ac und Cs]
+20.0 +19.2 95 +23 +23 комфорт 1010.6 980.0 +19.8
03 21.02 штиль 0 10 км 8/3 600 м
[Sc Ac und Cs]
+24.0 +20.5 81 +30 +37 очень
душно
1012.1 981.9
06 21.02 штиль 0 12 км 3/3 600 м
[Cu med, cong Cs]
+32.0 +18.8 46 +37 +53 опасность
солнечного
удара
1008.2 978.9
09 21.02 штиль 0 12 км 3/3 600 м
[Cu med, cong]
+32.6 +20.5 49 +39 +44 очень
душно
1004.9 975.7
12 21.02 штиль 0 10 км ясно +28.4 +21.5 66 +36 +36 очень
душно
1005.5 975.9 +33.0
15 21.02 штиль 0 6000 м дымка ясно +25.4 +21.8 80 +33 +33 очень
душно
1007.5 977.5
18 21.02 штиль 0 5000 м дымка ясно +23.0 +20.7 87 +30 +30 очень
душно
1008.0 977.8
21 21.02 штиль 0 5000 м дымка 10/6 600 м
[Sc Ac As]
+21.4 +20.0 92 +27 +27 душно 1007.0 976.6
00 22.02 штиль 0 6000 м дымка 8/3 600 м
[Sc Ac und Cs]
+21.0 +19.7 92 +26 +26 душно 1009.7 979.2 +20.8
03 22.02 штиль 0 10 км 10/6 600 м
[Frnb Ac As]
+24.8 +21.8 83 +32 +34 очень
душно
1012.2 982.0
06 22.02 штиль 0 12 км 3/3 600 м
[Cu hum]
+31.2 +19.7 50 +37 +53 опасность
солнечного
удара
1008.7 979.2
09 22.02 Ю 2 12 км 8/3 600 м
[Cb cap Ac As Cs]
+30.2 +20.0 54 +36 +39 очень
душно
1006.7 977.2
12 22.02 штиль 0 10 км 3/1 600 м
[Cu med, cong Ci fib]
+24.5 +19.9 76 +30 +30 очень
душно
1008.6 978.5 +32.0
15 22.02 штиль 0 10 км 8/5 600 м
[Sc Cs]
+22.0 +20.0 88 +28 +28 душно 1011.8 981.3
18 22.02 штиль 0 6000 м гроза, ливневой дождь 10/3 600 м
[Cb cap Ac As]
+21.6 +20.8 95 +27 +27 душно 1012.6 982.0 1
21 22.02 штиль 0 7000 м дымка {гроза} 8/5 600 м
[Sc Ac As Cs]
+21.0 +20.5 97 +26 +26 душно 1011.5 981.0 0.0
00 23.02 штиль 0 6000 м дымка {гроза} 10/6 600 м
[Frnb Ac As]
+21.1 +20.3 95 +26 +26 душно 1013.5 982.9 +20.2
03 23.02 штиль 0 10 км 10/6 600 м
[Frnb Ac As]
+23.4 +21.3 88 +31 +33 очень
душно
1015.6 985.2
06 23.02 штиль 0 12 км 8/5 600 м
[Sc Cs]
+28.6 +20.8 63 +36 +46 очень
душно
1012.3 982.4
09 23.02 штиль 0 12 км 6/4 600 м
[Sc Cs]
+29.8 +19.7 55 +36 +40 очень
душно
1009.0 979.4
12 23.02 штиль 0 12 км 3/1 600 м
[Cu hum Ci fib]
+26.6 +21.2 72 +34 +34 очень
душно
1010.9 980.9 +30.3
15 23.02 штиль 0 10 км ясно +24.2 +20.8 81 +30 +30 очень
душно
1013.8 983.5
18 23.02 штиль 0 10 км 10/5 600 м
[Sc Ac As]
+22.0 +20.5 91 +28 +28 душно 1013.8 983.2
21 23.02 штиль 0 7000 м дымка 10/5 600 м
[Sc Ac As]
+21.5 +20.4 93 +27 +27 душно 1013.5 982.9
00 24.02 штиль 0 6000 м дымка 8/4 600 м
[Sc Ac As Cs]
+20.4 +19.4 94 +24 +24 комфорт 1015.7 984.9 +20.0
03 24.02 штиль 0 12 км ясно +25.0 +21.1 79 +32 +47 очень
душно
1016.6 986.3
06 24.02 штиль 0 12 км ясно +29.4 +21.0 61 +37 +60 опасность
солнечного
удара
1013.6 983.8
09 24.02 штиль 0 12 км ясно +31.5 +21.1 54 +39 +46 очень
душно
1009.1 979.7
12 24.02 штиль 0 8000 м дымка ясно +27.0 +22.6 77 +36 +36 очень
душно
1012.1 982.1 +31.8
15 24.02 штиль 0 6000 м дымка ясно +24.5 +21.3 82 +31 +31 очень
душно
1013.2 982.9
18 24.02 штиль 0 5000 м дымка ясно +23.1 +21.1 89 +31 +31 очень
душно
1013.4 983.0
21 24.02 штиль 0 5000 м дымка ясно +21.0 +19.7 92 +26 +26 душно 1012.5 981.9
00 25.02 штиль 0 6000 м дымка ясно +20.0 +18.4 91 +23 +23 комфорт 1013.7 983.0 +19.8
03 25.02 штиль 0 12 км ясно +26.5 +19.2 64 +32 +48 очень
душно
1014.8 984.7
06 25.02 штиль 0 12 км 3/3 600 м
[Cu med, cong]
+32.6 +18.6 44 +38 +54 опасность
солнечного
удара
1010.5 981.2
09 25.02 штиль 0 12 км 1/1 600 м
[Cu hum]
+34.5 +20.7 45 +42 +48 опасность
перегрева
1007.8 978.6
12 25.02 штиль 0 10 км ясно +30.0 +21.2 59 +38 +38 очень
душно
1008.4 978.8 +35.0
15 25.02 штиль 0 6000 м дымка ясно +25.0 +22.0 83 +32 +32 очень
душно
1010.9 980.8
18 25.02 штиль 0 5000 м дымка ясно +23.4 +21.3 88 +31 +31 очень
душно
1011.0 980.7
21 25.02 штиль 0 5000 м дымка ясно +22.0 +20.5 91 +28 +28 душно 1010.2 979.8

 

Местоположение метеостанции Nan Agromet (Таиланд): широта 18.87 долгота 100.75 высота над уровнем моря 264 м.

В архиве по умолчанию представлена погода в Nan Agromet за последнюю неделю. Архивные данные за месяц целиком и за предыдущие месяцы, начиная с января 2011 года, Вы можете получить, выбрав интересующий диапазон дат из раскрывающегося списка и нажав кнопку "Ввод!".

Внимание! Время в таблицах - всемирное. Для получения местного времени необходимо прибавить поправку, которая в Nan Agromet равна 7 ч.

Смотрите также архив погоды в соседних городах и на ближайших метеорологических станциях:

Погода в Nan (Таиланд) (11 км)
Погода в Tha Wang Pha (Таиланд) (28 км)
Погода в Thung Chang (Таиланд) (63 км)
Погода в Phayao (Таиланд) (94 км)
Погода в Phrae (Таиланд) (100 км)
Погода в Sayaboury (Лаос) (108 км)
Погода в Lampang (Таиланд) (145 км)
Погода в Chiang Rai (Таиланд) (153 км)
Погода в Uttaradit (Таиланд) (155 км)
Погода в Chiang Rai Agromet (Таиланд) (159 км)

Пояснения к столбцам:

Ветер - указаны скорость ветра в м/с - средняя за 10 мин, порывы в срок и между сроками (в фигурных скобках) и направление, откуда дует ветер: С - северный, СВ - северо-восточный, В - восточный, ЮВ - юго-восточный, Ю - южный, ЮЗ - юго-западный, З - западный, СЗ - северо-западный.
Видимость - горизонтальная дальность видимости в метрах или километрах. При видимости от 1 до 10 км при отсутствии осадков обычно наблюдается дымка, при ухудшении видимости до 1 км и менее - туман. В сухую погоду видимость может ухудшаться дымом, пылью или мглою.
Явления - указаны атмосферные явления, наблюдавшиеся в срок или в последний час перед сроком; фигурными скобками обозначены явления, наблюдавшиеся между сроками (за 1-3 часа до срока); квадратными скобками обозначены град или гололедные отложения с указанием их диаметра в мм.
Облачность - указаны через наклонную черту общая и нижняя облачность в баллах и высота нижней границы облаков в метрах; квадратными скобками обозначены формы облаков: Ci - перистые, Cs - перисто-слоистые, Cc - перисто-кучевые, Ac - высококучевые, As - высокослоистые, Sc - слоисто-кучевые, Ns - слоисто-дождевые, Cu - кучевые, Cb - кучево-дождевые. Подробнее классификацию облаков см. в Атласе облаков (PDF).
T - Температура воздуха - температура, измеренная на высоте 2 м над землей.
Td - Температура точки росы - температура, при понижении до которой содержащийся в воздухе водяной пар достигнет насыщения.
f - Относительная влажность воздуха - влажноcть воздуха, измеренная на высоте 2 м над землей.
Te - Эффективная температура - температура, которую ощущает одетый по сезону человек в тени. Характеристика душности погоды. При расчете учитывается влияние влажности воздуха и скорости ветра на теплоощущения человека.
Tes - Эффективная температура на солнце - температура, которую ощущает человек, с поправкой на солнечный нагрев. Характеристика знойности погоды. Зависит от высоты солнца над горизонтом, облачности и скорости ветра. Ночью, в пасмурную погоду, а также при ветре 12 м/с и более поправка равна нулю.
P - Атмосферное давление - приведенное к уровню моря атмосферное давление.
Po - Атмосферное давление - измеренное на уровне метеостанции атмосферное давление.
Tmin - Минимальная температура - минимум температуры воздуха на высоте 2 м над землей.
Tmax - Максимальная температура - максимум температуры воздуха на высоте 2 м над землей.
R - Количество осадков - Количество выпавших осадков за период времени, мм. При наведении курсора мыши на число - период времени, за который выпало указанное количество осадков.
R24 - Количество осадков - Количество выпавших осадков за 24 часа, мм.
S - Снежный покров - Высота снежного покрова, см. При наведении курсора мыши на число - состояние снежного покрова и степень покрытия местности в баллах.